GW5579 Weather Reports


time (UTC)temp
F
wind
direction
speed
knots
gust
knots
rain 1hr
in
rain 24hr
in
rain mn
in
humidity
%
barometer
mb
20260506232810 48 149 0.0 0.0 0.00 0.00 0.00 98 1008.4
20260506232306 48 148 0.0 0.9 0.00 0.00 0.00 98 1008.5
20260506231802 48 149 0.0 0.9 0.00 0.00 0.00 98 1008.6
20260506231301 48 150 0.0 0.0 0.00 0.00 0.00 98 1008.6
20260506230758 49 149 0.0 0.0 0.00 0.00 0.00 98 1008.5
20260506230255 49 148 0.0 0.9 0.00 0.00 0.00 98 1008.4
20260506225751 49 155 0.9 0.9 0.00 0.00 0.00 98 1008.4
20260506225248 50 170 0.0 0.0 0.00 0.00 0.00 98 1008.5
20260506224744 50 170 0.0 0.0 0.00 0.00 0.00 98 1008.6
20260506224242 50 171 0.0 0.0 0.00 0.00 0.00 98 1008.5
20260506223738 50 171 0.0 0.0 0.00 0.00 0.00 98 1008.4
20260506223233 50 171 0.0 0.0 0.00 0.00 0.00 98 1008.8
20260506222731 50 172 0.0 0.0 0.00 0.00 0.00 98 1008.4
20260506222226 50 152 0.0 0.0 0.00 0.00 0.00 98 1008.5
20260506221724 50 151 0.0 0.0 0.00 0.00 0.00 98 1008.3
20260506221222 50 157 0.0 0.0 0.00 0.00 0.00 98 1008.7
20260506220719 50 150 0.0 0.0 0.00 0.00 0.00 98 1008.6
20260506220214 51 157 0.0 0.0 0.00 0.00 0.00 98 1008.7
20260506215711 51 157 0.0 0.0 0.00 0.00 0.00 98 1008.5
20260506215206 51 156 0.9 0.9 0.00 0.00 0.00 98 1008.5
20260506214703 51 159 0.0 0.0 0.00 0.00 0.00 98 1008.6
20260506214200 51 155 0.0 0.0 0.00 0.00 0.00 98 1008.6
20260506213659 51 154 0.0 0.0 0.00 0.00 0.00 98 1008.5
20260506213156 51 153 0.0 0.9 0.00 0.00 0.00 98 1008.5
20260506212653 51 155 0.0 0.0 0.00 0.00 0.00 98 1008.6
20260506212148 52 159 0.0 0.0 0.00 0.00 0.00 98 1008.6
20260506211643 52 169 0.0 0.0 0.00 0.00 0.00 97 1008.6
20260506211140 52 169 0.0 0.0 0.00 0.00 0.00 97 1008.5
20260506210637 52 169 0.0 0.0 0.00 0.00 0.00 97 1008.5
20260506210135 52 165 0.0 0.9 0.00 0.00 0.00 97 1008.3
20260506205632 53 161 0.0 0.0 0.00 0.10 0.10 97 1008.2
20260506205132 53 163 0.0 0.0 0.00 0.10 0.10 97 1008.2
20260506204630 53 166 0.0 0.0 0.00 0.10 0.10 97 1008.1
20260506204127 53 165 0.0 0.0 0.00 0.10 0.10 97 1008.1
20260506203625 53 168 0.0 0.9 0.00 0.10 0.10 97 1008.1
20260506203121 53 166 0.0 0.0 0.00 0.10 0.10 97 1008.0
20260506202619 54 152 0.0 0.0 0.00 0.10 0.10 97 1007.9
20260506202115 54 168 0.0 0.9 0.00 0.10 0.10 97 1008.0
20260506201612 54 189 0.9 0.9 0.00 0.10 0.10 97 1007.9
20260506201109 54 165 0.0 0.9 0.00 0.10 0.10 97 1007.8
20260506200605 54 161 0.0 0.9 0.00 0.10 0.10 97 1008.0
20260506195559 55 153 0.0 0.9 0.00 0.10 0.10 96 1008.0
20260506195055 55 165 0.0 0.0 0.00 0.10 0.10 96 1008.0
20260506194553 55 173 0.0 0.0 0.00 0.10 0.10 96 1007.8
20260506194049 55 183 0.0 0.9 0.00 0.10 0.10 96 1008.0
20260506193547 56 163 0.0 0.0 0.00 0.10 0.10 96 1007.6
20260506193044 56 176 0.0 0.0 0.00 0.10 0.10 96 1007.6
20260506192541 56 158 0.0 0.0 0.00 0.10 0.10 96 1007.6
20260506192036 56 181 0.0 0.9 0.00 0.10 0.10 96 1007.6
20260506191534 57 152 0.0 0.0 0.00 0.10 0.10 95 1007.6
20260506191029 57 154 0.0 0.0 0.00 0.10 0.10 95 1007.4
20260506190527 57 163 0.0 0.0 0.00 0.10 0.10 95 1007.6
20260506190024 57 163 0.0 0.0 0.00 0.10 0.10 95 1007.4
20260506185521 58 164 0.0 0.0 0.00 0.10 0.10 94 1007.6
20260506185017 58 164 0.0 0.0 0.00 0.10 0.10 94 1007.4
20260506184515 58 174 0.0 0.0 0.00 0.10 0.10 94 1007.4
20260506184012 59 220 0.9 1.7 0.00 0.10 0.10 93 1007.4
20260506183507 59 157 0.0 0.0 0.00 0.10 0.10 93 1007.1
20260506183005 59 149 0.0 0.9 0.00 0.10 0.10 93 1007.1
20260506182502 59 241 1.7 3.5 0.00 0.10 0.10 93 1007.2
20260506181959 59 14 3.5 3.5 0.00 0.10 0.10 94 1007.0
20260506181457 59 198 0.9 3.5 0.00 0.10 0.10 94 1007.0
20260506180953 59 12 2.6 5.2 0.00 0.10 0.10 94 1006.9
20260506180450 59 147 0.0 1.7 0.00 0.10 0.10 94 1006.9
20260506175946 59 89 1.7 1.7 0.00 0.10 0.10 93 1006.6
20260506175443 60 171 0.0 0.9 0.00 0.10 0.10 92 1006.5
20260506174940 60 58 1.7 5.2 0.35 0.10 0.10 90 1006.6
20260506174438 62 98 1.7 1.7 0.59 0.10 0.10 84 1006.4
20260506173934 64 305 2.6 3.5 0.17 0.03 0.03 75 1006.9
20260506173432 64 200 1.7 2.6 0.00 0.00 0.00 72 1006.2
20260506172929 65 108 0.9 1.7 0.00 0.00 0.00 71 1006.2
20260506172426 65 156 0.0 0.9 0.00 0.00 0.00 70 1005.9
20260506171922 65 144 0.9 0.9 0.00 0.00 0.00 69 1006.0
20260506171420 66 170 0.0 0.9 0.00 0.00 0.00 68 1005.9
20260506170918 66 100 1.7 1.7 0.00 0.00 0.00 68 1006.1
20260506170414 66 120 0.9 1.7 0.00 0.00 0.00 68 1006.0
20260506165913 66 139 0.9 0.9 0.00 0.00 0.00 67 1006.1
20260506165410 67 157 0.0 0.0 0.00 0.00 0.00 65 1005.9
20260506164906 68 157 0.0 0.0 0.00 0.00 0.00 64 1005.9
20260506164403 68 158 0.0 0.0 0.00 0.00 0.00 62 1005.9
20260506163901 68 158 0.0 0.0 0.00 0.00 0.00 62 1005.9
20260506163355 69 169 0.0 0.9 0.00 0.00 0.00 61 1005.9
20260506162850 70 165 0.0 0.0 0.00 0.00 0.00 61 1005.9
20260506162349 70 155 0.0 0.9 0.00 0.00 0.00 59 1005.9
20260506161846 71 150 0.9 0.9 0.00 0.00 0.00 59 1005.7
20260506161343 71 160 0.0 0.0 0.00 0.00 0.00 60 1005.8
20260506160841 71 135 0.9 0.9 0.00 0.00 0.00 60 1005.7
20260506160337 71 154 0.0 1.7 0.00 0.00 0.00 59 1005.6
20260506155836 71 157 0.0 0.0 0.00 0.00 0.00 60 1005.7
20260506155332 70 130 0.9 0.9 0.00 0.00 0.00 59 1005.8
20260506153444 71 133 0.9 0.9 0.00 0.00 0.00 55 1005.8
20260506152942 71 157 0.0 0.9 0.00 0.00 0.00 55 1005.8
20260506152438 71 143 0.0 0.9 0.00 0.00 0.00 54 1006.0
20260506151937 71 126 0.0 1.7 0.00 0.00 0.00 55 1005.9
20260506151434 71 159 0.0 2.6 0.00 0.00 0.00 54 1005.8
20260506150932 71 161 0.0 0.9 0.00 0.00 0.00 55 1005.9
20260506150427 71 151 0.9 0.9 0.00 0.00 0.00 55 1005.9
20260506145925 71 272 1.7 2.6 0.00 0.00 0.00 53 1006.0
20260506145421 72 176 0.0 1.7 0.00 0.00 0.00 53 1005.9
20260506144918 73 157 0.0 3.5 0.00 0.00 0.00 52 1006.1
20260506144415 73 173 0.0 1.7 0.00 0.00 0.00 52 1006.0
20260506143914 73 160 0.9 1.7 0.00 0.00 0.00 52 1006.0
20260506143410 73 144 1.7 3.5 0.00 0.00 0.00 52 1006.1
20260506142908 73 267 1.7 2.6 0.00 0.00 0.00 53 1006.1
20260506142406 72 31 3.5 3.5 0.00 0.00 0.00 53 1006.2
20260506141904 72 169 0.9 2.6 0.00 0.00 0.00 55 1006.2
20260506141401 72 153 0.9 1.7 0.00 0.00 0.00 54 1006.3
20260506140859 71 159 1.7 3.5 0.00 0.00 0.00 56 1006.4
20260506140356 70 132 1.7 2.6 0.00 0.00 0.00 56 1006.4
20260506135853 69 145 0.0 0.9 0.00 0.00 0.00 60 1006.6
20260506135350 69 107 1.7 3.5 0.00 0.00 0.00 57 1006.6
20260506134846 70 146 1.7 2.6 0.00 0.00 0.00 57 1006.6
20260506134343 70 126 0.9 0.9 0.00 0.00 0.00 58 1006.7
20260506133840 70 156 0.0 0.9 0.00 0.00 0.00 58 1006.6
20260506133336 70 156 0.9 2.6 0.00 0.00 0.00 57 1006.7
20260506132833 70 172 0.0 0.9 0.00 0.00 0.00 63 1006.6
20260506132330 69 135 0.9 1.7 0.00 0.00 0.00 63 1006.8
20260506131828 69 159 0.0 3.5 0.00 0.00 0.00 60 1007.2
20260506131324 70 145 3.5 5.2 0.00 0.00 0.00 54 1007.1
20260506130822 70 177 2.6 6.1 0.00 0.00 0.00 54 1007.0
20260506130318 70 178 1.7 5.2 0.00 0.00 0.00 52 1006.9
20260506125816 71 160 1.7 1.7 0.00 0.00 0.00 53 1007.0
20260506125314 71 157 1.7 3.5 0.00 0.00 0.00 53 1007.0
20260506124812 71 179 0.9 2.6 0.00 0.00 0.00 52 1007.0
20260506124309 71 182 4.3 6.1 0.00 0.00 0.00 52 1007.2
20260506123806 71 157 7.0 7.8 0.00 0.00 0.00 52 1007.0
20260506123305 70 133 1.7 2.6 0.00 0.00 0.00 53 1007.2
20260506122801 70 90 3.5 5.2 0.00 0.00 0.00 54 1007.2
20260506122258 69 84 6.1 7.8 0.00 0.00 0.00 55 1007.0
20260506121756 69 157 0.9 2.6 0.00 0.00 0.00 56 1007.3
20260506121253 69 152 2.6 5.2 0.00 0.00 0.00 55 1007.5
20260506120750 69 141 3.5 5.2 0.00 0.00 0.00 54 1007.9
20260506120248 69 124 1.7 5.2 0.00 0.00 0.00 53 1007.9
20260506115746 70 166 2.6 6.1 0.00 0.00 0.00 54 1007.9
20260506115244 69 164 0.9 3.5 0.00 0.00 0.00 54 1007.9
20260506114741 70 153 3.5 5.2 0.00 0.00 0.00 53 1007.9
20260506114239 69 80 4.3 6.1 0.00 0.00 0.00 54 1008.0
20260506113737 70 65 4.3 6.1 0.00 0.00 0.00 53 1008.1
20260506113234 69 154 0.9 3.5 0.00 0.00 0.00 54 1008.1
20260506112730 69 152 4.3 7.0 0.00 0.00 0.00 53 1008.0
20260506112228 69 165 3.5 3.5 0.00 0.00 0.00 54 1008.0
20260506111725 69 143 1.7 7.8 0.00 0.00 0.00 54 1008.0
20260506111224 70 136 4.3 8.7 0.00 0.00 0.00 53 1008.0
20260506110720 69 138 0.0 3.5 0.00 0.00 0.00 56 1008.1
20260506110218 69 64 2.6 3.5 0.00 0.00 0.00 56 1008.3
20260506105714 69 343 3.5 3.5 0.00 0.00 0.00 57 1008.3
20260506105211 69 111 2.6 3.5 0.00 0.00 0.00 55 1008.4
20260506104709 68 79 1.7 2.6 0.00 0.00 0.00 57 1008.6
20260506104206 68 144 3.5 6.1 0.00 0.00 0.00 57 1008.5
20260506103703 68 147 2.6 6.1 0.00 0.00 0.00 57 1008.5
20260506103200 68 170 2.6 5.2 0.00 0.00 0.00 56 1008.6
20260506102658 68 129 5.2 7.8 0.00 0.00 0.00 57 1008.8
20260506102156 67 70 1.7 3.5 0.00 0.00 0.00 59 1008.8
20260506101652 67 134 3.5 7.0 0.00 0.00 0.00 59 1008.8
20260506101149 66 340 1.7 5.2 0.00 0.00 0.00 61 1008.9
20260506100648 66 62 6.1 7.8 0.00 0.00 0.00 60 1008.7
20260506100145 66 95 3.5 6.1 0.00 0.00 0.00 60 1008.8
20260506095644 65 193 3.5 5.2 0.00 0.00 0.00 61 1008.8
20260506095140 65 143 1.7 7.0 0.00 0.00 0.00 62 1009.0
20260506094637 65 155 4.3 5.2 0.00 0.00 0.00 61 1009.1
20260506094135 64 144 3.5 6.1 0.00 0.00 0.00 62 1009.0
20260506093634 64 56 2.6 6.1 0.00 0.00 0.00 62 1009.2
20260506093130 64 147 3.5 5.2 0.00 0.00 0.00 63 1009.0
20260506092628 64 139 5.2 8.7 0.00 0.00 0.00 62 1009.2
20260506092125 64 123 3.5 6.1 0.00 0.00 0.00 63 1009.2
20260506091623 65 170 3.5 8.7 0.00 0.00 0.00 62 1009.3
20260506091120 65 99 1.7 5.2 0.00 0.00 0.00 61 1009.2
20260506090618 64 61 2.6 5.2 0.00 0.00 0.00 61 1009.2
20260506090114 65 158 0.9 2.6 0.00 0.00 0.00 62 1009.4
20260506085611 64 131 3.5 5.2 0.00 0.00 0.00 62 1009.3
20260506085108 64 102 4.3 6.1 0.00 0.00 0.00 61 1009.3
20260506084604 65 153 1.7 5.2 0.00 0.00 0.00 60 1009.4
20260506084101 64 317 2.6 3.5 0.00 0.00 0.00 61 1009.4
20260506083558 63 150 5.2 6.1 0.00 0.00 0.00 62 1009.4
20260506083055 62 169 1.7 7.0 0.00 0.00 0.00 64 1009.6
20260506082552 62 136 7.8 9.6 0.00 0.00 0.00 63 1009.3
20260506082047 62 141 4.3 6.1 0.00 0.00 0.00 64 1009.7
20260506081546 61 127 10.4 13.0 0.00 0.00 0.00 65 1009.6
20260506081043 61 144 6.1 7.0 0.00 0.00 0.00 63 1009.7
20260506080541 62 103 2.6 9.6 0.00 0.00 0.00 64 1009.7
20260506073524 61 182 0.9 8.7 0.00 0.00 0.00 62 1009.6
20260506073021 61 126 0.9 5.2 0.00 0.00 0.00 62 1009.7
20260506072518 60 145 1.7 5.2 0.00 0.00 0.00 65 1009.7
20260506072016 61 168 3.5 7.0 0.00 0.00 0.00 63 1009.5
20260506071514 60 66 0.9 3.5 0.00 0.00 0.00 65 1009.6
20260506071010 60 23 5.2 9.6 0.00 0.00 0.00 65 1009.7
20260506070508 59 335 6.1 8.7 0.00 0.00 0.00 65 1009.9
20260506062445 58 139 3.5 5.2 0.00 0.00 0.00 68 1010.1
20260506061941 58 149 1.7 3.5 0.00 0.00 0.00 69 1010.2
20260506061437 57 151 1.7 2.6 0.00 0.00 0.00 71 1010.1
20260506060936 57 174 1.7 3.5 0.00 0.00 0.00 73 1010.4
20260506060434 57 133 1.7 5.2 0.00 0.00 0.00 71 1010.3
20260506051405 54 97 1.7 6.1 0.00 0.00 0.00 77 1010.7
20260506050902 53 149 0.9 1.7 0.00 0.00 0.00 79 1010.9
20260506050400 53 137 0.9 2.6 0.00 0.00 0.00 79 1010.7
20260506044850 53 144 0.0 2.6 0.00 0.00 0.00 80 1010.8
20260506044348 53 69 1.7 2.6 0.00 0.00 0.00 80 1010.8
20260506043845 53 159 0.0 1.7 0.00 0.00 0.00 81 1010.8
20260506043342 52 160 0.9 1.7 0.00 0.00 0.00 81 1010.8
20260506042841 52 355 2.6 5.2 0.00 0.00 0.00 82 1010.8
20260506042339 52 353 3.5 7.0 0.00 0.00 0.00 82 1010.8
20260506041838 52 185 1.7 5.2 0.00 0.00 0.00 82 1010.9
20260506041334 52 165 0.9 6.1 0.00 0.00 0.00 84 1010.8
20260506040831 52 113 2.6 3.5 0.00 0.00 0.00 84 1010.8
20260506040329 52 125 3.5 5.2 0.00 0.00 0.00 85 1010.8
20260506035825 51 105 0.9 2.6 0.00 0.00 0.00 86 1010.9
20260506035323 51 47 1.7 3.5 0.00 0.00 0.00 87 1010.8
20260506034820 50 65 0.9 2.6 0.00 0.00 0.00 88 1010.8
20260506034317 50 351 2.6 3.5 0.00 0.00 0.00 89 1010.6
20260506033814 50 145 0.9 3.5 0.00 0.00 0.00 89 1010.7
20260506033311 50 109 1.7 3.5 0.00 0.00 0.00 90 1010.6
20260506032807 49 0 1.7 3.5 0.00 0.00 0.00 90 1010.6
20260506032306 49 347 3.5 6.1 0.00 0.00 0.00 91 1010.5
20260506031801 49 114 0.9 3.5 0.00 0.00 0.00 91 1010.6
20260506031258 49 83 2.6 3.5 0.00 0.00 0.00 91 1010.4
20260506030756 49 354 3.5 5.2 0.00 0.00 0.00 91 1010.5
20260506030254 49 117 2.6 2.6 0.00 0.00 0.00 90 1010.7
20260506025751 49 113 1.7 3.5 0.00 0.00 0.00 90 1010.4
20260506025247 49 192 1.7 5.2 0.00 0.00 0.00 90 1010.4
20260506024744 49 131 1.7 5.2 0.00 0.00 0.00 91 1010.4
20260506024240 49 160 0.9 2.6 0.00 0.00 0.00 90 1010.4
20260506023736 49 54 1.7 1.7 0.00 0.00 0.00 90 1010.4
20260506023234 49 77 1.7 3.5 0.00 0.00 0.00 90 1010.5
20260506022730 49 26 2.6 3.5 0.00 0.00 0.00 91 1010.5
20260506022228 49 143 0.9 3.5 0.00 0.00 0.00 91 1010.4
20260506021726 48 90 0.0 0.9 0.00 0.00 0.00 90 1010.3
20260506021223 49 136 0.9 1.7 0.00 0.00 0.00 89 1010.3
20260506020720 49 226 1.7 1.7 0.00 0.00 0.00 89 1010.1
20260506020218 49 19 2.6 2.6 0.00 0.00 0.00 89 1010.2
20260506015715 49 15 2.6 3.5 0.00 0.00 0.00 89 1010.3
20260506015213 49 142 0.0 1.7 0.00 0.00 0.00 89 1010.1
20260506014709 49 345 1.7 2.6 0.00 0.00 0.00 89 1010.2
20260506014205 48 322 1.7 3.5 0.00 0.00 0.00 89 1010.2
20260506013703 48 82 1.7 2.6 0.00 0.00 0.00 89 1010.2
20260506013200 48 144 0.9 0.9 0.00 0.00 0.00 89 1010.1
20260506012656 48 173 0.0 0.9 0.00 0.00 0.00 88 1010.2
20260506012153 49 126 0.9 0.9 0.00 0.00 0.00 88 1010.3
20260506011651 48 123 0.9 1.7 0.00 0.00 0.00 89 1010.2
20260506011147 49 160 0.0 0.0 0.00 0.00 0.00 87 1010.2
20260506010645 49 137 0.9 0.9 0.00 0.00 0.00 87 1010.2
20260506010142 49 89 1.7 1.7 0.00 0.00 0.00 87 1010.6
20260506005639 49 71 1.7 3.5 0.00 0.00 0.00 88 1010.4
20260506005136 49 165 0.0 0.0 0.00 0.00 0.00 87 1010.4
20260506004632 49 155 0.0 0.0 0.00 0.00 0.00 86 1010.3
20260506004130 49 99 0.9 1.7 0.00 0.00 0.00 86 1010.4
20260506003626 49 147 0.9 0.9 0.00 0.00 0.00 86 1010.3
20260506003122 49 170 0.0 0.9 0.00 0.00 0.00 86 1010.3
20260506002618 49 163 0.0 0.0 0.00 0.00 0.00 85 1010.6
20260506002114 50 159 0.0 0.0 0.00 0.00 0.00 84 1010.6
20260506001610 50 165 0.0 0.0 0.00 0.00 0.00 83 1010.6
20260506001107 50 110 0.9 1.7 0.00 0.00 0.00 84 1010.3
20260506000605 50 134 0.9 0.9 0.00 0.00 0.00 82 1010.4
20260505235600 51 169 0.0 0.9 0.00 0.00 0.00 80 1010.6
20260505235057 51 156 0.0 1.7 0.00 0.00 0.00 81 1010.5
20260505234554 51 142 0.0 1.7 0.00 0.00 0.00 80 1010.5
20260505234050 51 0 3.5 5.2 0.00 0.00 0.00 79 1010.4
20260505233548 52 145 0.9 1.7 0.00 0.00 0.00 79 1010.4
20260505233045 52 35 1.7 2.6 0.00 0.00 0.00 79 1010.4